Dewpoint
58 57 57 57 57 56 55 54 53 52 52 52 50 48 49 50 50 50 50 51 50 48 49 50 50 51 54 61 60 58 54 54
57 56 56 55 54 57 56 54 54 53 52 52 52 49 50 51 51 52 51 50 49 47 45 46 50 50 54 59 58 55 51 51
56 56 55 54 53 54 54 54 54 54 54 55 53 51 48 48 51 53 54 52 50 49 47 48 50 48 50 50 54 50 50 50
56 56 55 54 54 53 54 53 54 53 52 52 50 50 50 51 53 54 54 55 53 52 52 52 47 44 45 45 46 49 48 49
57 56 55 54 54 54 53 54 53 52 52 51 50 49 48 47 48 50 49 51 48 47 45 44 44 44 45 42 47 48 47 48
57 57 56 54 54 54 54 53 53 52 52 52 50 49 48 48 48 49 48 47 46 45 45 45 46 46 45 43 42 45 46 47
58 57 56 55 53 52 52 50 50 51 50 49 51 50 49 49 48 47 47 46 45 45 44 44 45 47 47 45 43 43 45 45
56 56 55 54 52 51 51 50 51 52 52 52 49 50 50 48 48 47 48 48 47 46 45 45 45 47 47 47 45 44 44 45
55 55 54 52 52 52 51 52 53 52 52 52 53 52 50 48 48 47 47 48 48 49 48 48 47 48 47 47 47 46 45 44
55 55 53 52 50 51 52 51 50 50 49 49 48 50 52 51 50 50 52 50 49 49 50 49 49 49 48 48 47 47 46 46
53 53 52 51 51 51 50 46 45 45 44 45 45 45 45 48 47 47 48 51 52 53 53 51 50 49 48 48 48 48 48 46
49 47 47 50 50 45 43 42 41 42 43 43 43 44 43 43 43 43 44 44 45 46 51 52 51 51 51 51 50 49 49 48
37 38 39 39 39 39 39 39 40 41 42 42 42 42 41 40 40 40 41 41 41 42 44 48 50 50 50 50 50 50 50 49
40 40 40 40 40 40 40 39 40 41 41 40 40 38 40 36 37 38 38 39 38 39 40 40 46 47 49 47 45 46 47 49
40 40 40 40 40 40 40 39 40 39 39 38 38 38 38 38 37 36 37 37 36 36 38 38 38 41 44 46 44 43 44 45
40 40 39 39 39 37 36 36 36 38 37 38 36 36 36 37 36 35 36 37 36 36 37 37 38 37 39 43 43 44 42 41
39 39 38 38 38 37 37 35 36 37 37 35 35 34 34 34 34 34 34 35 35 35 35 35 37 38 38 39 40 41 42 41
38 37 37 37 37 37 36 34 34 35 35 34 34 33 33 33 34 33 34 34 34 34 35 35 34 35 36 37 38 38 39 40
38 37 37 36 36 36 35 34 34 34 34 34 33 32 32 32 32 33 33 33 34 35 35 34 34 34 34 35 36 36 38 39
38 37 37 36 36 35 35 35 34 34 35 34 33 33 33 32 32 33 33 33 33 34 33 33 33 33 34 36 36 35 36 37
Lifted_Index
3 3 4 4 5 5 5 5 5 6 6 6 7 7 7 6 6 6 6 6 6 7 6 3 1 0 -0 -1 -1 -1 -0 0
3 3 4 4 5 5 5 5 5 5 6 6 6 7 7 6 6 5 5 5 6 7 6 5 2 1 -0 -1 -1 -1 -0 0
3 3 4 4 4 4 4 4 5 5 5 6 6 6 6 6 5 5 4 4 5 6 6 6 4 2 1 0 -0 -0 0 1
2 3 3 4 4 3 4 4 4 5 5 6 6 6 6 6 5 5 4 4 5 5 5 5 5 4 3 2 2 2 2 2
2 2 2 3 3 3 3 3 4 5 5 5 5 5 5 5 5 5 5 5 5 5 5 5 5 5 5 4 4 4 4 4
1 1 1 2 2 2 2 3 3 4 5 5 4 4 4 4 5 5 5 5 5 5 5 5 4 5 5 5 5 5 5 5
1 1 1 1 2 2 2 3 3 3 3 4 3 3 3 3 4 4 4 5 5 4 4 4 4 4 4 4 4 4 5 5
0 1 1 1 2 2 2 3 3 3 2 2 2 2 2 2 2 3 3 3 4 4 4 3 3 3 3 4 4 4 4 4
1 1 1 2 2 3 3 3 3 3 2 2 2 2 2 2 2 2 2 2 3 3 3 3 2 3 3 3 3 3 3 3
0 1 1 2 3 3 4 4 4 4 4 4 4 4 3 3 2 2 2 2 2 3 3 3 2 2 2 3 3 3 3 3
0 0 1 2 3 4 4 5 5 5 6 6 6 6 6 5 4 3 3 3 3 3 3 3 3 2 2 3 3 3 3 3
1 1 2 2 3 4 6 6 7 7 7 7 8 8 7 7 6 6 5 5 5 5 4 4 3 3 3 3 3 3 3 3
3 3 4 4 5 6 7 8 8 8 9 9 9 9 9 9 8 8 7 7 7 6 6 6 5 4 4 4 3 3 3 4
5 5 6 7 7 8 8 8 8 8 9 10 11 11 11 11 10 9 9 9 8 8 8 8 7 6 5 5 5 5 5 4
6 7 8 8 8 8 8 8 7 8 9 10 12 13 14 13 13 12 12 11 11 10 10 9 9 8 7 7 6 6 6 6
7 8 8 9 8 8 8 8 8 8 8 10 12 14 15 15 15 14 14 14 14 13 13 12 11 10 9 9 8 8 7 7
8 8 9 9 9 8 8 8 8 8 9 10 12 14 15 15 15 15 15 15 16 15 15 14 14 13 12 11 10 9 9 9
8 8 8 8 8 8 9 9 8 9 9 11 13 14 14 15 15 15 15 15 16 16 16 16 15 15 14 14 13 12 11 10
8 8 8 8 9 9 9 9 9 9 10 11 13 14 14 15 15 15 15 15 15 16 16 16 16 16 16 15 15 14 13 12
7 8 8 8 9 9 9 9 9 10 11 12 13 14 14 15 15 15 15 15 15 16 16 16 16 16 16 16 16 15 14 14